Regional Weather Roundup
Issued by NWS Little Rock, AR

Home | Current Version | Previous Version | Text Only | Print | Product List | Glossary Off
Versions: 1 2 3 4 5 6 7 8 9 10 11 12 13 14 15 16 17 18 19 20 21 22 23 24 25 26 27 28

000
ASUS44 KLZK 291605
RWRLZK

WEATHER ROUNDUP FOR ARKANSAS
NATIONAL WEATHER SERVICE LITTLE ROCK AR
1100 AM CDT MON AUG 29 2016

NOTE: "FAIR" INDICATES FEW OR NO CLOUDS BELOW 12,000 FEET WITH NO
SIGNIFICANT WEATHER AND/OR OBSTRUCTIONS TO VISIBILITY.

ARZ001-003-010-029-291700-
NORTHWEST ARKANSAS

CITY           SKY/WX    TMP DP  RH WIND       PRES   REMARKS
FAYETTEVILLE   SUNNY     86  73  65 E6        30.18S HX  93
FORT SMITH     SUNNY     86  72  62 E8        30.13R HX  92
HARRISON       SUNNY     84  72  67 S6        30.21R HX  89
BENTONVILLE    SUNNY     88  68  51 SE6       30.20R HX  91
ROGERS         SUNNY     85  71  63 E10       30.20R HX  90
SILOAM SPGS      N/A    N/A N/A N/A MISG        N/A
HIGHFILL       SUNNY     87  72  60 E7        30.19R HX  93
SPRINGDALE     SUNNY     84  73  70 E6        30.21R HX  91
$$

ARZ004-005-016-291700-
NORTH CENTRAL ARKANSAS

CITY           SKY/WX    TMP DP  RH WIND       PRES   REMARKS
BATESVILLE     SUNNY     88  75  66 CALM      30.15S HX  97
FLIPPIN        MOSUNNY   84  73  70 E3        30.16R HX  91
MTN HOME       SUNNY     86  74  67 CALM      30.18R HX  94
$$

ARZ040-041-291700-
WEST CENTRAL ARKANSAS

CITY           SKY/WX    TMP DP  RH WIND       PRES   REMARKS
MENA           CLOUDY    86  77  74 E8        30.15R HX  97
MOUNT IDA      SUNNY     85  73  67 CALM      30.11S HX  91
$$

ARZ009-017-025-026-028-291700-
NORTHEAST ARKANSAS

CITY           SKY/WX    TMP DP  RH WIND       PRES   REMARKS
JONESBORO      SUNNY     88  76  67 NE6       30.13S HX  99
NEWPORT        CLOUDY    88  75  65 E5        30.14R HX  97
WALNUT RIDGE   SUNNY     88  75  66 NE6       30.14S HX  97
BLYTHEVILLE    SUNNY     88  77  69 NE6       30.14S HX 100
$$

ARZ022-023-033-042-044-291700-
CENTRAL ARKANSAS

CITY           SKY/WX    TMP DP  RH WIND       PRES   REMARKS
LITTLE ROCK    PTSUNNY   88  75  65 N3        30.11S HX  97
N LITTLE ROCK    N/A     85  76  74 NE5       30.09  HX  93
JACKSONVILLE   SUNNY     87  76  68 CALM      30.11S HX  97
SEARCY         SUNNY     88  75  65 NE6       30.14R HX  97
HOT SPRINGS    SUNNY     89  70  53 E7        30.12R HX  94
RUSSELLVILLE   MOSUNNY   86  73  65 VRB3      30.13R HX  93
$$

ARZ036-291700-
EAST ARKANSAS

CITY           SKY/WX    TMP DP  RH WIND       PRES   REMARKS
WEST MEMPHIS   SUNNY     87  73  62 CALM      30.11R HX  94
$$

ARZ050-053-066-070-073-291700-
SOUTHWEST ARKANSAS

CITY           SKY/WX    TMP DP  RH WIND       PRES   REMARKS
ARKADELPHIA    FAIR      85  76  74 VRB3      30.10R HX  94
TEXARKANA      SUNNY     86  76  71 VRB3      30.09R HX  96
EL DORADO      SUNNY     88  73  61 E6        30.08R HX  95
DE QUEEN       SUNNY     88  77  69 NE8       30.07S HX 100
$$

ARZ056-057-069-291700-
SOUTHEAST ARKANSAS

CITY           SKY/WX    TMP DP  RH WIND       PRES   REMARKS
PINE BLUFF     PTSUNNY   88  73  61 N7        30.10R HX  95
STUTTGART      CLOUDY    86  77  74 E5        30.11S HX  97
MONTICELLO     SUNNY     93  72  50 SE7       30.08S HX 101

$$






USA.gov is the U.S. government's official web portal to all federal, state and local government web resources and services.